This is the latest recevied weather packets stored in our database for station/object OM4MO-10. If no packets are shown the sender has not sent any weather packets the latest 10 day(s).
| Time | Temp. | Humidity | Pressure | Rain* | Wind** | Luminosity | Snow |
|---|---|---|---|---|---|---|---|
| 1777852277 | 5° C | 100% | 1019.5 hPa | - | - | - | - |
| 1777851076 | 6.11° C | 100% | 1019.7 hPa | - | - | - | - |
| 1777849876 | 5.56° C | 100% | 1019.7 hPa | - | - | - | - |
| 1777848676 | 6.11° C | 100% | 1019.7 hPa | - | - | - | - |
| 1777847476 | 6.67° C | 100% | 1019.9 hPa | - | - | - | - |
| 1777846276 | 7.22° C | 100% | 1019.8 hPa | - | - | - | - |
| 1777845076 | 7.22° C | 100% | 1020 hPa | - | - | - | - |
| 1777843876 | 7.22° C | 100% | 1020 hPa | - | - | - | - |
| 1777842676 | 7.78° C | 100% | 1019.9 hPa | - | - | - | - |
| 1777841476 | 7.78° C | 100% | 1019.9 hPa | - | - | - | - |
| 1777840276 | 8.33° C | 100% | 1019.9 hPa | - | - | - | - |
| 1777839075 | 8.89° C | 100% | 1019.9 hPa | - | - | - | - |
| 1777837875 | 11.11° C | 100% | 1019.9 hPa | - | - | - | - |
| 1777836675 | 10.56° C | 100% | 1019.8 hPa | - | - | - | - |
| 1777835475 | 10° C | 100% | 1011.2 hPa | - | - | - | - |
| 1777834275 | 11.67° C | 84% | 1013.8 hPa | - | - | - | - |
| 1777833075 | 13.33° C | 68% | 1016.4 hPa | - | - | - | - |
| 1777831875 | 13.89° C | 65% | 1017.1 hPa | - | - | - | - |
| 1777830675 | 15° C | 58% | 1019.1 hPa | - | - | - | - |
| 1777829474 | 15.56° C | 52% | 1021.4 hPa | - | - | - | - |
| 1777828274 | 17.22° C | 43% | 1026.3 hPa | - | - | - | - |
| 1777827074 | 22.78° C | 31% | 1033.1 hPa | - | - | - | - |
| 1777825874 | 21.11° C | 31% | 1034.8 hPa | - | - | - | - |
| 1777824674 | 21.11° C | 29% | 1035.1 hPa | - | - | - | - |
| 1777823474 | 22.78° C | 31% | 1035 hPa | - | - | - | - |
* Rain since midnight (hover to see other rain measurements)
** Current wind speed in m/s (hover to see current wind gust speed)